Tracking 20623 objects as of 4-Apr-2020
HD Live streaming from Space Station
objects crossing your sky now

SS 1

Track SS 1 now!
10-day predictions
SS 1 is classified as:


NORAD ID: 10529
Int'l Code: 1977-112D
Perigee: 415.9 km
Apogee: 1,514.5 km
Inclination: 63.3 °
Period: 104.2 minutes
Semi major axis: 7336 km
RCS: Unknown
Launch date: December 8, 1977
Source: United States (US)
Launch site: AIR FORCE WESTERN TEST RANGE (AFWTR)
aabbcc
Your satellite tracking list
Your tracking list is empty




NASA's NSSDC Master Catalog

Two Line Element Set (TLE):
1 10529U 77112D   20094.73465657 +.00000527 +00000-0 +67690-4 0  9999
2 10529 063.3061 176.9501 0748740 126.7646 240.4553 13.81653526038317
Source of the keplerian elements: McCants